Dewpoint
62 62 62 62 61 61 61 61 61 61 62 63 63 64 64 65 65 66 66 67 67 66 66 66 66 66 66 66 66 66 65 65 65 65 64 64 63 63 63 62 62 62
61 62 62 62 61 61 62 62 61 61 61 61 62 63 63 63 63 65 65 66 66 66 67 67 66 66 66 66 66 65 65 65 65 65 64 64 64 63 63 63 62 62
61 61 61 61 61 61 61 61 61 61 61 62 61 62 62 63 63 64 64 65 65 66 66 66 66 66 66 66 66 65 65 65 65 65 65 64 64 64 63 63 63 62
61 61 61 61 61 61 61 61 61 61 61 61 62 62 62 63 64 64 64 65 65 65 66 66 66 66 66 66 66 65 65 65 65 65 64 64 64 64 64 64 63 63
61 61 61 61 61 62 61 61 61 61 61 61 62 62 63 62 63 63 64 65 66 65 66 66 66 66 66 66 66 65 65 65 65 65 64 64 64 64 64 63 63 63
63 62 62 62 61 61 61 61 61 61 61 61 62 62 62 63 63 63 64 65 65 66 66 66 66 66 66 66 66 66 66 65 65 65 64 64 64 64 64 63 63 63
59 62 62 62 62 62 61 62 62 62 62 62 62 62 62 62 63 63 63 64 64 65 65 65 65 66 66 66 66 66 66 66 65 65 64 64 65 64 64 64 63 63
55 59 62 63 62 62 62 62 62 62 62 62 62 62 62 62 62 63 63 63 63 64 65 65 65 65 66 66 66 66 66 66 65 65 65 65 65 64 64 64 64 63
53 54 58 63 63 62 61 61 61 62 62 62 62 62 62 62 62 63 63 63 63 63 64 65 65 65 65 66 66 66 66 66 66 65 65 65 65 65 65 65 65 64
50 52 54 56 60 63 63 62 62 62 62 62 62 62 62 62 63 63 63 63 63 63 63 64 64 65 65 65 65 66 65 65 66 65 65 65 65 64 65 65 65 65
50 50 51 52 54 58 61 62 62 63 63 63 62 62 62 62 62 62 63 63 63 63 63 63 64 64 65 65 65 65 65 65 65 65 65 65 65 65 65 65 65 64
49 50 50 50 52 53 56 59 61 62 63 63 63 63 63 63 62 62 62 62 63 63 63 63 63 64 64 64 65 65 65 65 65 65 65 65 65 65 65 65 64 64
49 49 50 50 51 52 53 54 55 58 60 62 63 63 63 63 63 63 63 63 62 63 63 63 63 64 64 64 64 64 65 65 65 65 65 65 65 65 65 65 64 64
49 50 50 50 51 51 51 52 53 53 54 56 59 62 63 63 63 64 64 64 63 63 63 63 63 63 64 64 64 64 64 64 65 65 65 65 65 65 65 65 64 64
49 50 51 50 50 50 50 50 51 52 53 53 55 56 59 61 62 63 63 63 64 64 64 64 64 64 64 64 64 64 64 64 64 64 64 64 64 64 65 64 64 64
49 50 50 49 49 49 49 50 50 51 52 52 52 53 54 56 58 60 61 62 63 63 64 64 64 64 62 58 59 64 64 64 64 64 64 64 64 64 64 64 64 64
48 48 49 48 48 49 49 49 49 50 50 50 51 52 53 53 55 54 56 58 60 61 62 63 64 64 57 52 50 52 62 64 64 64 64 64 64 64 64 64 64 64
47 48 48 48 48 48 48 48 49 49 49 49 50 51 51 52 53 52 53 54 55 56 58 60 62 59 52 50 49 48 52 62 64 64 64 64 64 64 64 64 64 64
47 47 47 47 47 48 48 48 48 48 48 48 48 49 50 50 50 51 51 51 52 53 54 55 57 55 49 48 48 47 46 52 61 63 64 64 64 64 64 64 64 64
46 46 46 47 47 47 48 48 48 48 48 48 49 49 49 49 50 50 50 50 50 51 51 52 54 51 48 47 47 46 46 47 57 61 63 63 64 64 64 64 64 64
46 46 46 46 47 47 47 47 47 48 48 48 48 48 48 48 48 48 49 49 49 50 50 51 51 47 46 46 45 45 45 46 55 58 60 62 63 64 64 64 64 64
45 45 46 46 47 47 47 47 47 47 47 48 49 48 48 48 48 49 49 49 49 49 50 50 50 46 45 45 45 45 45 52 56 57 58 60 61 62 63 64 64 64
45 45 46 46 47 47 47 47 47 47 47 48 47 47 47 47 48 48 48 48 49 49 49 49 49 47 44 44 44 44 45 53 55 57 58 58 59 61 62 63 63 64
45 45 45 46 46 46 46 47 47 47 47 48 47 47 47 47 48 48 48 49 49 49 49 49 49 48 44 44 43 43 46 52 55 56 57 57 58 59 60 61 62 61
45 45 45 45 46 46 46 46 45 46 47 47 47 47 47 47 48 48 48 49 49 49 50 50 50 49 45 44 43 43 46 51 53 54 55 55 56 58 59 60 61 61
45 45 45 46 46 46 44 44 43 43 44 44 44 44 45 46 47 47 47 48 49 49 49 50 49 49 49 44 44 43 43 50 51 52 53 53 54 55 57 59 60 61